Location: Bühlhof
(48.7849°N, 8.6361°E)
Time: 23:38:37
(UTC+00:00)

ARIANE 5 R/B - Pass Details

Date: 19 January 2026
Orbit: 746 x 793 km, 98.8° (Epoch: 7 February)

Event Time Altitude Azimuth Distance (km) Brightness Sun altitude
Rises 17:15:45 0° 172° (S) 3,279 5.9 -11.8°
Reaches altitude 10° 17:18:05 10° 175° (S) 2,354 5.2 -12.2°
Maximum altitude 17:23:15 66° 257° (WSW) 864 3.0 -13.0°
Drops below altitude 10° 17:28:26 10° 340° (NNW) 2,357 5.1 -13.8°
Sets 17:30:47 0° 343° (NNW) 3,285 5.8 -14.2°
